User: anonymous   Login
Location: Unspecified
(22.6800°N, 112.2000°E)
Time: 21:58:47
(UTC+08:00)
Language:

Hubble Space Telescope - Orbit

View from above orbital plane
View from above orbital plane
View from above satellite
View from above satellite

Ground track
Ground track

The orbit data is extracted from the following two-line orbital elements,

1 20580U 90037B   21207.59958228  .00000622  00000-0  26608-4 0  9990
2 20580  28.4690 166.0517 0002916 123.0705  40.3811 15.09689550516937
Epoch (UTC): 26 July 2021 14:23:23
Eccentricity: 0.0002916
inclination: 28.4690°
perigee height: 535 km
apogee height: 539 km
right ascension of ascending node: 166.0517°
argument of perigee: 123.0705°
revolutions per day: 15.09689550
mean anomaly at epoch: 40.3811°
orbit number at epoch: 51693

The dashed part of the orbit path shows where the satellite is in the earth's shadow,  

DLR